Detroit Lakes, MN

9:47 PM CDT on March 27, 2017 (GMT -0500)
Detroit Lakes

Weather History for KDTL - September, 2012

Change the Weather History Date:

Tuesday, September 4, 2012

  Actual Average Record
Temperature  
Mean Temperature 71 °F -  
Max Temperature 82 °F 75 °F 88 °F (1948)
Min Temperature 60 °F 50 °F 29 °F (1961)
Cooling Degree Days 6    
Growing Degree Days 21 (Base 50)    
Moisture  
Dew Point 52 °F    
Average Humidity 56    
Maximum Humidity 88    
Minimum Humidity 25    
Precipitation  
Precipitation 0.17 in - - ()
Sea Level Pressure  
Sea Level Pressure 29.83 in    
Wind  
Wind Speed 6 mph (WNW)    
Max Wind Speed 17 mph    
Max Gust Speed 22 mph    
Visibility 10 miles    
Events Rain , Thunderstorm    
Averages and records for this station are not official NWS values.
T = Trace of Precipitation, MM = Missing Value Source: NWS Daily Summary

Daily Weather History Graph

Daily Weather History Graph

Search for Another Location

Airport or City:

Trip Planner

Search our weather history database for the weather conditions in past years. The results will help you decide how hot, cold, wet, or windy it might be!

Date:

Astronomy

Sep. 04, 2012 Rise Set
Actual Time 6:47 AM CDT 7:56 PM CDT
Civil Twilight 6:16 AM CDT 8:27 PM CDT
Nautical Twilight 5:39 AM CDT 9:04 PM CDT
Astronomical Twilight 4:59 AM CDT 9:44 PM CDT
Moon 9:28 PM CDT (9/4) 11:15 AM CDT (9/4)
Length of Visible Light 14h 10m
Length of Day
13h 08m
Waning Gibbous, 83% of the Moon is Illuminated
Sep 4
Waning Gibbous
Sep 8
Last Quarter
Sep 15
New
Sep 22
First Quarter
Sep 29
Full

Hourly Weather History & Observations

Time (CDT) Temp. Dew Point Humidity Pressure Visibility Wind Dir Wind Speed Gust Speed Precip Events Conditions
12:12 AM 66.2 °F 53.6 °F 64% 29.88 in 10.0 mi SSE 10.4 mph - N/A Rain Light Rain
12:33 AM 68.0 °F 51.8 °F 56% 29.87 in 10.0 mi SE 17.3 mph 21.9 mph N/A Rain , Thunderstorm Thunderstorms and Rain
12:53 AM 66.2 °F 53.6 °F 64% 29.88 in 10.0 mi SE 6.9 mph - N/A Thunderstorm Thunderstorm
1:13 AM 64.4 °F 53.6 °F 68% 29.87 in 10.0 mi SE 4.6 mph - N/A Thunderstorm Thunderstorm
1:32 AM 64.4 °F 53.6 °F 68% 29.88 in 10.0 mi Calm Calm - N/A Thunderstorm Thunderstorm
1:53 AM 64.4 °F 53.6 °F 68% 29.86 in 10.0 mi SSE 9.2 mph - N/A Rain , Thunderstorm Light Thunderstorms and Rain
2:13 AM 66.2 °F 53.6 °F 64% 29.86 in 10.0 mi South 9.2 mph - N/A Thunderstorm Scattered Clouds
2:32 AM 62.6 °F 59.0 °F 88% 29.85 in 4.0 mi SE 11.5 mph - 0.16 in Rain , Thunderstorm Thunderstorms and Rain
2:53 AM 64.4 °F 57.2 °F 77% 29.84 in 10.0 mi South 4.6 mph - 0.17 in Thunderstorm Scattered Clouds
3:13 AM 64.4 °F 57.2 °F 77% 29.85 in 10.0 mi Calm Calm - N/A Thunderstorm Clear
3:32 AM 64.4 °F 55.4 °F 73% 29.85 in 10.0 mi ESE 3.5 mph - N/A Thunderstorm Clear
3:53 AM 62.6 °F 55.4 °F 77% 29.85 in 10.0 mi Calm Calm - N/A Thunderstorm Thunderstorm
4:12 AM 62.6 °F 57.2 °F 82% 29.86 in 10.0 mi North 5.8 mph - N/A   Clear
4:53 AM 62.6 °F 55.4 °F 77% 29.85 in 10.0 mi NE 6.9 mph - N/A   Clear
5:12 AM 62.6 °F 55.4 °F 77% 29.85 in 10.0 mi ENE 5.8 mph - N/A   Clear
5:33 AM 62.6 °F 53.6 °F 72% 29.84 in 10.0 mi East 4.6 mph - N/A   Clear
5:52 AM 60.8 °F 53.6 °F 77% 29.84 in 10.0 mi ENE 5.8 mph - N/A   Clear
6:13 AM 60.8 °F 53.6 °F 77% 29.83 in 10.0 mi East 5.8 mph - N/A   Clear
6:33 AM 60.8 °F 55.4 °F 82% 29.84 in 10.0 mi ESE 3.5 mph - N/A   Clear
6:52 AM 60.8 °F 55.4 °F 82% 29.85 in 10.0 mi Calm Calm - N/A   Clear
7:13 AM 60.8 °F 55.4 °F 82% 29.85 in 10.0 mi NW 4.6 mph - N/A   Clear
7:33 AM 62.6 °F 55.4 °F 77% 29.85 in 10.0 mi Calm Calm - N/A   Clear
7:52 AM 60.8 °F 55.4 °F 82% 29.85 in 10.0 mi Calm Calm - N/A   Clear
8:13 AM 62.6 °F 55.4 °F 77% 29.85 in 10.0 mi Calm Calm - N/A   Clear
8:33 AM 64.4 °F 55.4 °F 73% 29.85 in 10.0 mi Calm Calm - N/A   Clear
8:52 AM 64.4 °F 55.4 °F 73% 29.85 in 10.0 mi Calm Calm - N/A   Clear
9:13 AM 66.2 °F 55.4 °F 68% 29.84 in 10.0 mi Calm Calm - N/A   Clear
9:33 AM 68.0 °F 55.4 °F 64% 29.84 in 10.0 mi Calm Calm - N/A   Clear
9:52 AM 69.8 °F 55.4 °F 60% 29.84 in 10.0 mi Calm Calm - N/A   Clear
10:13 AM 69.8 °F 57.2 °F 64% 29.84 in 10.0 mi Calm Calm - N/A   Clear
10:33 AM 71.6 °F 55.4 °F 57% 29.84 in 10.0 mi Calm Calm - N/A   Clear
10:52 AM 71.6 °F 53.6 °F 53% 29.84 in 10.0 mi West 4.6 mph - N/A   Clear
11:13 AM 73.4 °F 53.6 °F 50% 29.84 in 10.0 mi West 3.5 mph - N/A   Clear
11:33 AM 73.4 °F 53.6 °F 50% 29.84 in 10.0 mi WNW 8.1 mph - N/A   Clear
11:52 AM 75.2 °F 53.6 °F 47% 29.84 in 10.0 mi West 6.9 mph - N/A   Clear
12:13 PM 77.0 °F 53.6 °F 44% 29.84 in 10.0 mi NW 4.6 mph - N/A   Clear
12:33 PM 77.0 °F 51.8 °F 41% 29.83 in 10.0 mi North 3.5 mph - N/A   Clear
12:52 PM 78.8 °F 51.8 °F 39% 29.83 in 10.0 mi NW 4.6 mph - N/A   Clear
1:13 PM 78.8 °F 51.8 °F 39% 29.83 in 10.0 mi NW 8.1 mph - N/A   Clear
1:33 PM 80.6 °F 50.0 °F 34% 29.83 in 10.0 mi NW 6.9 mph - N/A   Clear
1:52 PM 80.6 °F 50.0 °F 34% 29.83 in 10.0 mi WNW 11.5 mph - N/A   Clear
2:12 PM 82.4 °F 48.2 °F 30% 29.82 in 10.0 mi NW 11.5 mph - N/A   Clear
2:33 PM 82.4 °F 48.2 °F 30% 29.82 in 10.0 mi NW 5.8 mph - N/A   Clear
2:52 PM 82.4 °F 46.4 °F 28% 29.82 in 10.0 mi WNW 9.2 mph - N/A   Clear
3:12 PM 82.4 °F 44.6 °F 26% 29.83 in 10.0 mi West 11.5 mph - N/A   Clear
3:33 PM 82.4 °F 42.8 °F 25% 29.82 in 10.0 mi West 11.5 mph - N/A   Clear
3:52 PM 82.4 °F 42.8 °F 25% 29.82 in 10.0 mi NW 12.7 mph - N/A   Clear
4:13 PM 82.4 °F 44.6 °F 26% 29.81 in 10.0 mi West 9.2 mph - N/A   Clear
4:33 PM 82.4 °F 44.6 °F 26% 29.81 in 10.0 mi WNW 8.1 mph - N/A   Clear
4:52 PM 82.4 °F 42.8 °F 25% 29.82 in 10.0 mi West 10.4 mph - N/A   Clear
5:13 PM 82.4 °F 44.6 °F 26% 29.82 in 10.0 mi NW 9.2 mph - N/A   Clear
5:32 PM 82.4 °F 44.6 °F 26% 29.81 in 10.0 mi WNW 6.9 mph - N/A   Clear
5:53 PM 82.4 °F 44.6 °F 26% 29.82 in 10.0 mi WNW 4.6 mph - N/A   Clear
6:12 PM 80.6 °F 42.8 °F 26% 29.81 in 10.0 mi NW 8.1 mph - N/A   Clear
6:33 PM 80.6 °F 46.4 °F 30% 29.81 in 10.0 mi WNW 5.8 mph - N/A   Clear
6:52 PM 78.8 °F 46.4 °F 32% 29.81 in 10.0 mi NW 3.5 mph - N/A   Clear
7:13 PM 78.8 °F 48.2 °F 34% 29.81 in 10.0 mi West 3.5 mph - N/A   Clear
7:32 PM 75.2 °F 50.0 °F 41% 29.81 in 10.0 mi West 3.5 mph - N/A   Clear
7:53 PM 73.4 °F 50.0 °F 44% 29.81 in 10.0 mi West 4.6 mph - N/A   Clear
8:12 PM 71.6 °F 51.8 °F 50% 29.81 in 10.0 mi Calm Calm - N/A   Clear
8:33 PM 71.6 °F 51.8 °F 50% 29.81 in 10.0 mi Calm Calm - N/A   Clear
8:52 PM 68.0 °F 53.6 °F 60% 29.81 in 10.0 mi Calm Calm - N/A   Clear
9:12 PM 68.0 °F 53.6 °F 60% 29.81 in 10.0 mi Calm Calm - N/A   Clear
9:33 PM 68.0 °F 51.8 °F 56% 29.81 in 10.0 mi Calm Calm - N/A   Clear
10:12 PM 64.4 °F 57.2 °F 77% 29.80 in 10.0 mi NNW 3.5 mph - N/A   Clear
10:33 PM 62.6 °F 55.4 °F 77% 29.82 in 10.0 mi Calm Calm - N/A   Clear
10:52 PM 62.6 °F 55.4 °F 77% 29.81 in 10.0 mi Calm Calm - N/A   Clear
11:12 PM 64.4 °F 55.4 °F 73% 29.81 in 10.0 mi Calm Calm - N/A   Clear
11:33 PM 62.6 °F 59.0 °F 88% 29.82 in 10.0 mi Calm Calm - N/A Rain Light Rain
11:52 PM 64.4 °F 57.2 °F 77% 29.83 in 10.0 mi NNW 5.8 mph - N/A   Clear